Regional Weather Roundup
Issued by NWS

Home | Current Version | Previous Version | Graphics & Text | Print | Product List | Glossary On
Versions: 1 2 3 4 5 6 7 8 9 10 11 12 13 14 15 16 17 18 19 20 21 22 23 24 25 26 27 28 29 30 31 32 33 34 35 36 37 38 39 40 41 42 43 44 45 46 47 48 49 50
000
ASUS43 KFSD 291002
RWRSD

WEATHER ROUNDUP FOR SOUTH DAKOTA
NATIONAL WEATHER SERVICE SIOUX FALLS SD
500 AM CDT WED MAR 29 2017

NOTE: "FAIR" INDICATES FEW OR NO CLOUDS BELOW 12,000 FEET WITH NO
SIGNIFICANT WEATHER AND/OR OBSTRUCTIONS TO VISIBILITY.


SDZ001>005-009-010-012>017-291100-
NORTHWEST AND NORTH CENTRAL SOUTH DAKOTA

CITY           SKY/WX    TMP DP  RH WIND       PRES   REMARKS
BUFFALO          N/A     42  41  96 S6        30.03F
FAITH            N/A     42  42 100 MISG      30.10F
MOBRIDGE       CLOUDY    44  40  85 CALM      30.12F
$$

SDZ012>016-024>037-041>051-057-063-072>074-291100-
SOUTHWEST AND SOUTH CENTRAL SOUTH DAKOTA

CITY           SKY/WX    TMP DP  RH WIND       PRES   REMARKS
RAPID CTY ARPT CLOUDY    40  39  97 CALM      30.09F
PIERRE         CLOUDY    42  41  96 CALM      30.12F
CUSTER         CLOUDY    31  28  89 NW3       30.08R
ELLSWORTH AFB  CLOUDY    41  41 100 CALM      30.09
PHILIP         CLOUDY    42  41  96 E3        30.12F
PINE RIDGE     CLOUDY    41  41 100 CALM      30.11F
SPEARFISH      FAIR      32  30  93 CALM      30.09F
WINNER         LGT RAIN  43  41  93 NW3       30.13F
$$

SDZ004>011-016>023-039-040-291100-
NORTHEAST SOUTH DAKOTA

CITY           SKY/WX    TMP DP  RH WIND       PRES   REMARKS
ABERDEEN       CLOUDY    37  32  82 NW5       30.16S
WATERTOWN      CLOUDY    38  35  89 N5        30.15F
BROOKINGS      CLOUDY    39  34  82 NE3       30.14F
SISSETON         N/A     36  35  96 CALM      30.16S
$$

SDZ017-020-022-023-036>040-048>070-291100-
SOUTHEAST SOUTH DAKOTA

CITY           SKY/WX    TMP DP  RH WIND       PRES   REMARKS
SIOUX FALLS    CLOUDY    41  37  86 NE6       30.13F
HURON          CLOUDY    41  38  89 CALM      30.13F
CHAMBERLAIN    CLOUDY    45  43  94 NW3       30.12F
MITCHELL       CLOUDY    40  36  86 NE3       30.13F
YANKTON        CLOUDY    45  39  81 NE5       30.10F
$$

ABBREVIATIONS USED IN REMARKS
   TC - TEMPERATURE IN CELSIUS
  WCI - WIND CHILL INDEX
   HX - HEAT INDEX
  VSB - VISIBILITY




USA.gov is the U.S. government's official web portal to all federal, state and local government web resources and services.